EW5401 Weather Reports


Display with metric or nautical units.
time (UTC)temp
F
wind
direction
speed
MPH
gust
MPH
rain 1hr
in
rain 24hr
in
rain mn
in
humidity
%
barometer
mb
20260831133057 68 71 0.0 0.0 0.00 0.13 0.01 87 1019.3
20260831131553 67 80 0.0 0.0 0.00 0.13 0.01 91 1019.2
20260831130057 65 89 0.0 0.0 0.00 0.13 0.01 93 1019.6
20260831124553 65 39 0.0 0.0 0.00 0.13 0.01 96 1019.6
20260831123052 64 39 0.0 0.0 0.00 0.13 0.01 96 1019.6
20260831121549 63 39 0.0 0.0 0.00 0.13 0.01 96 1019.7
20260831120134 63 117 0.0 0.0 0.00 0.13 0.01 96 1019.7
20260831114546 62 117 0.0 0.0 0.00 0.13 0.01 96 1019.7
20260831113043 62 117 0.0 0.0 0.00 0.13 0.01 96 1019.4
20260831111548 61 117 0.0 0.0 0.00 0.13 0.01 96 1019.1
20260831110040 61 117 0.0 0.0 0.01 0.13 0.01 96 1019.1
20260831104541 61 117 0.0 0.0 0.01 0.13 0.01 96 1019.0
20260831103044 60 117 0.0 0.0 0.01 0.13 0.01 95 1018.7
20260831101536 61 117 0.0 0.0 0.01 0.13 0.01 95 1018.4
20260831100042 61 117 0.0 0.0 0.00 0.12 0.00 95 1018.6
20260831094535 61 117 0.0 0.0 0.00 0.12 0.00 95 1018.4
20260831093031 62 117 0.0 0.0 0.00 0.12 0.00 95 1018.4
20260831091531 62 117 0.0 0.0 0.00 0.12 0.00 95 1018.4
20260831090031 62 117 0.0 0.0 0.00 0.12 0.00 95 1018.4
20260831084533 62 117 0.0 0.0 0.00 0.12 0.00 95 1018.5
20260831083028 62 117 0.0 0.0 0.00 0.12 0.00 96 1018.4
20260831081540 62 117 0.0 0.0 0.00 0.12 0.00 95 1018.5
20260831080028 62 117 0.0 0.0 0.00 0.12 0.00 95 1018.1
20260831074625 62 117 0.0 0.0 0.00 0.12 0.00 95 1018.2
20260831073024 62 117 0.0 0.0 0.00 0.12 0.00 95 1018.2
20260831071526 62 117 0.0 0.0 0.00 0.12 0.00 95 1018.1
20260831070028 62 117 0.0 0.0 0.00 0.12 0.00 95 1018.2
20260831064522 62 117 0.0 0.0 0.00 0.12 0.00 95 1018.0
20260831063025 62 117 0.0 0.0 0.00 0.12 0.00 94 1017.9
20260831061518 62 117 0.0 0.0 0.00 0.12 0.00 94 1018.1
20260831060017 63 117 0.0 1.0 0.00 0.12 0.00 94 1018.2
20260831054515 63 117 0.0 1.0 0.00 0.12 0.00 94 1018.1
20260831053014 63 161 0.0 2.0 0.00 0.12 0.00 94 1018.2
20260831051524 64 234 1.0 3.0 0.00 0.12 0.00 94 1018.1
20260831050011 64 294 0.0 0.0 0.00 0.12 0.00 94 1018.2
20260831044510 64 294 0.0 2.0 0.00 0.12 0.00 94 1018.3
20260831043006 65 294 0.0 0.0 0.00 0.12 0.00 94 1018.3
20260831041506 65 294 0.0 1.0 0.00 0.12 0.00 94 1018.2
20260831040010 65 294 0.0 0.0 0.00 0.12 0.00 94 1018.2
20260831034503 65 294 0.0 0.0 0.00 0.12 0.12 94 1018.1
20260831033003 66 294 0.0 1.0 0.00 0.12 0.12 94 1018.1
20260831031505 65 294 0.0 1.0 0.00 0.12 0.12 94 1018.2
20260831030001 65 294 0.0 1.0 0.00 0.12 0.12 94 1018.1
20260831024502 66 294 0.0 1.0 0.00 0.12 0.12 94 1018.2
20260831023003 66 294 0.0 1.0 0.00 0.12 0.12 93 1018.1
20260831021502 66 294 0.0 2.0 0.00 0.12 0.12 93 1018.2
20260831020059 66 294 0.0 3.0 0.00 0.12 0.12 93 1018.2
20260831014559 66 180 1.0 2.0 0.00 0.12 0.12 93 1018.0
20260831013102 66 184 0.0 2.0 0.00 0.12 0.12 93 1017.8
20260831011559 67 184 0.0 0.0 0.00 0.12 0.12 93 1017.6
20260831010129 67 184 0.0 1.0 0.00 0.12 0.12 92 1017.4
20260831004556 68 184 0.0 1.0 0.00 0.12 0.12 92 1017.3
20260831003056 68 184 0.0 2.0 0.09 0.12 0.12 91 1017.1
20260831001605 69 184 0.0 1.0 0.12 0.12 0.12 91 1016.8
20260831000053 69 184 0.0 3.0 0.12 0.12 0.12 91 1016.6
20260830234551 70 303 0.0 4.0 0.12 0.12 0.12 90 1016.4
20260830233050 70 199 0.0 1.0 0.01 0.01 0.01 88 1016.3
20260830231549 71 199 0.0 1.0 0.00 0.00 0.00 87 1015.8
20260830230052 71 199 0.0 0.0 0.00 0.00 0.00 86 1016.3
20260830224555 72 199 0.0 0.0 0.00 0.00 0.00 85 1016.3
20260830223045 72 199 0.0 0.0 0.00 0.00 0.00 84 1016.3
20260830221545 73 199 0.0 0.0 0.00 0.00 0.00 84 1016.4
20260830220053 73 199 0.0 0.0 0.00 0.00 0.00 82 1016.2
20260830214552 74 199 0.0 1.0 0.00 0.00 0.00 82 1016.0
20260830213043 74 199 0.0 2.0 0.00 0.00 0.00 80 1016.2
20260830211542 74 225 0.0 4.0 0.00 0.00 0.00 80 1016.3
20260830210040 74 205 0.0 4.0 0.00 0.00 0.00 79 1016.4
20260830204539 74 205 1.0 3.0 0.00 0.00 0.00 78 1016.4
20260830203038 75 216 1.0 3.0 0.00 0.00 0.00 77 1016.5
20260830201536 75 194 1.0 6.0 0.00 0.00 0.00 77 1016.5
20260830200037 75 186 2.0 5.0 0.00 0.00 0.00 74 1016.6
20260830194535 76 198 1.0 5.0 0.00 0.00 0.00 74 1016.8
20260830193031 76 257 1.0 5.0 0.00 0.00 0.00 75 1016.8
20260830191529 76 224 2.0 5.0 0.00 0.00 0.00 74 1017.0
20260830190031 75 225 2.0 4.0 0.00 0.00 0.00 74 1017.2
20260830184526 76 233 2.0 5.0 0.00 0.00 0.00 72 1017.4
20260830183024 76 140 1.0 6.0 0.00 0.00 0.00 71 1017.6
20260830181534 76 217 1.0 6.0 0.00 0.00 0.00 72 1017.8
20260830180032 77 232 3.0 7.0 0.00 0.00 0.00 69 1017.9
20260830174526 78 179 2.0 7.0 0.00 0.00 0.00 64 1017.9
20260830173034 79 191 2.0 7.0 0.00 0.00 0.00 64 1017.8
20260830171518 77 192 2.0 7.0 0.00 0.00 0.00 66 1017.9
20260830170012 77 167 2.0 7.0 0.00 0.00 0.00 65 1018.1
20260830164511 77 191 2.0 7.0 0.00 0.00 0.00 62 1018.4
20260830163007 76 261 1.0 6.0 0.00 0.00 0.00 63 1018.6
20260830161504 76 229 2.0 5.0 0.00 0.00 0.00 67 1018.7
20260830154558 74 243 2.0 5.0 0.00 0.00 0.00 71 1019.0
20260830153054 74 196 1.0 3.0 0.00 0.00 0.00 69 1019.3
20260830151553 74 205 1.0 3.0 0.00 0.00 0.00 70 1019.5
20260830150051 73 261 1.0 4.0 0.00 0.00 0.00 72 1019.5
20260830144548 73 235 1.0 4.0 0.00 0.00 0.00 73 1019.6
20260830143049 73 241 1.0 7.0 0.00 0.00 0.00 73 1019.7
20260830141543 70 214 1.0 2.0 0.00 0.00 0.00 76 1019.8
20260830140037 69 214 0.0 2.0 0.00 0.00 0.00 79 1020.0
20260830134545 68 214 0.0 2.0 0.00 0.00 0.00 82 1020.0